Regional Weather Roundup
Issued by NWS

Home | Current Version | Previous Version | Graphics & Text | Print | Product List | Glossary On
Versions: 1 2 3 4 5 6 7 8 9 10 11 12 13 14 15 16 17 18 19 20 21 22 23 24 25 26 27 28 29 30 31 32 33 34 35 36 37 38 39 40 41 42 43 44 45 46 47 48 49 50
000
ASUS43 KFSD 281402
RWRSD

WEATHER ROUNDUP FOR SOUTH DAKOTA
NATIONAL WEATHER SERVICE SIOUX FALLS SD
900 AM CDT TUE APR 28 2015

NOTE: "FAIR" INDICATES FEW OR NO CLOUDS BELOW 12,000 FEET WITH NO
SIGNIFICANT WEATHER AND/OR OBSTRUCTIONS TO VISIBILITY.


SDZ001>005-009-010-012>017-281500-
NORTHWEST AND NORTH CENTRAL SOUTH DAKOTA

CITY           SKY/WX    TMP DP  RH WIND       PRES   REMARKS
BUFFALO          N/A     40  37  89 CALM      30.26F
FAITH            N/A     45  36  70 N8        30.33S
MOBRIDGE       MOSUNNY   43  40  89 NW7       30.31S
$$

SDZ012>016-024>037-041>051-057-063-072>074-281500-
SOUTHWEST AND SOUTH CENTRAL SOUTH DAKOTA

CITY           SKY/WX    TMP DP  RH WIND       PRES   REMARKS
RAPID CTY ARPT SUNNY     43  39  86 CALM      30.34S
PIERRE         CLOUDY    47  41  80 NW9       30.32S
CUSTER         SUNNY     41  35  79 W5        30.31F
ELLSWORTH AFB  SUNNY     43  40  88 S5        30.34R
PHILIP         SUNNY     44  37  76 W6        30.35S
PINE RIDGE     MOSUNNY   46  40  79 W3        30.34S
WINNER         FAIR      49  41  74 NW10      30.33S
$$

SDZ004>011-016>023-039-040-281500-
NORTHEAST SOUTH DAKOTA

CITY           SKY/WX    TMP DP  RH WIND       PRES   REMARKS
ABERDEEN       CLOUDY    51  42  71 N15       30.31R
WATERTOWN      CLOUDY    49  44  83 N13       30.25S
BROOKINGS      CLOUDY    48  45  87 N14       30.24S
SISSETON         N/A     50  45  83 N21       30.27R
$$

SDZ017-020-022-023-036>040-048>070-281500-
SOUTHEAST SOUTH DAKOTA

CITY           SKY/WX    TMP DP  RH WIND       PRES   REMARKS
SIOUX FALLS    CLOUDY    50  43  77 N5        30.23R
HURON          PTSUNNY   51  43  74 N15       30.28S
MITCHELL       CLOUDY    51  45  79 N14       30.29R
YANKTON        MOSUNNY   50  43  76 NW16      30.25S
$$

ABBREVIATIONS USED IN REMARKS
   TC - TEMPERATURE IN CELSIUS
  WCI - WIND CHILL INDEX
   HX - HEAT INDEX
  VSB - VISIBILITY



USA.gov is the U.S. government's official web portal to all federal, state and local government web resources and services.